User: anonymous   Login
Location: Unspecified
(0.0000°N, 0.0000°E)
Time: 20:39:19
(UTC+00:00)
Language:

APRIZESAT 3 - Orbit

View from above orbital plane
View from above orbital plane
View from above satellite
View from above satellite

Ground track
Ground track

The orbit data is extracted from the following two-line orbital elements,

1 35686U 09041F   15141.70208630  .00001237  00000-0  14066-3 0  9993
2 35686 098.1946 102.0994 0073222 316.6671 042.8799 14.86360198314630
Epoch (UTC): 21 May 2015 16:51:00
Eccentricity: 0.0073222
inclination: 98.1946°
perigee height: 558 km
apogee height: 660 km
right ascension of ascending node: 102.0994°
argument of perigee: 316.6671°
revolutions per day: 14.86360198
mean anomaly at epoch: 42.8799°
orbit number at epoch: 31463

The dashed part of the orbit path shows where the satellite is in the earth's shadow,  

DLR